Date,TemperatureHighF,TemperatureAvgF,TemperatureLowF,DewpointHighF,DewpointAvgF,DewpointLowF,HumidityHigh,HumidityAvg,HumidityLow,PressureMaxIn,PressureMinIn,WindSpeedMaxMPH,WindSpeedAvgMPH,GustSpeedMaxMPH,PrecipitationSumIn
2013-2-1,34.2,28.8,24.1,21.4,15.1,10.3,74,56,40,30.18,29.74,25,8,25,0.00
2013-2-2,34.2,25.7,18.1,24.0,13.2,8.9,99,60,39,30.25,29.98,15,6,15,0.00
2013-2-3,35.6,27.1,20.3,30.5,25.1,20.1,99,92,72,29.98,29.71,13,2,13,0.04
2013-2-4,32.5,26.9,21.7,26.4,18.0,14.2,99,70,50,29.93,29.75,21,7,21,0.00
2013-2-5,35.2,32.0,26.2,35.0,31.7,25.2,99,99,95,29.90,29.79,7,2,7,0.01
2013-2-6,43.5,34.9,28.0,35.9,28.4,15.9,99,79,53,30.29,29.82,20,5,20,0.01
2013-2-7,40.1,31.5,22.8,39.8,22.9,13.0,99,71,61,30.42,30.21,10,3,10,0.00
2013-2-8,42.1,37.8,28.8,41.6,37.5,28.5,99,99,99,30.21,29.51,21,6,21,1.02
2013-2-9,37.9,29.1,20.8,29.5,22.4,11.7,99,78,47,30.26,29.64,26,5,26,0.06
2013-2-10,42.3,27.7,12.7,31.9,19.5,10.0,99,73,39,30.42,30.24,11,3,11,0.00
2013-2-11,55.2,45.5,32.2,54.6,45.2,31.9,99,99,99,30.27,29.55,17,4,17,0.34
2013-2-12,51.1,42.3,32.0,45.2,33.9,27.2,99,74,51,29.89,29.65,24,6,24,0.00
2013-2-13,46.4,38.1,27.3,39.9,33.9,27.1,99,85,65,29.89,29.59,8,3,8,0.04
2013-2-14,52.0,38.8,32.4,43.1,37.0,32.1,99,94,69,29.94,29.60,8,3,8,0.14
2013-2-15,59.2,43.7,33.3,50.0,40.5,33.0,99,89,66,29.95,29.83,10,4,10,0.01
2013-2-16,44.6,37.6,32.0,39.8,33.7,22.8,99,87,68,29.87,29.63,17,5,17,0.00
2013-2-17,35.2,28.8,19.0,23.5,11.2,2.4,73,48,35,29.94,29.57,29,12,29,0.08
2013-2-18,40.5,30.7,17.2,17.4,12.5,2.6,61,47,35,30.19,29.94,22,7,22,0.00
2013-2-19,54.0,40.2,26.2,46.5,36.4,17.0,99,87,61,30.15,29.59,17,4,17,0.17
2013-2-20,39.0,31.7,25.3,34.6,19.4,13.5,84,60,48,29.93,29.65,28,11,28,0.01
2013-2-21,40.1,29.8,23.5,21.2,17.6,13.8,74,61,46,30.20,29.91,31,10,31,0.13
2013-2-22,39.9,33.2,24.6,38.8,30.1,18.6,99,88,72,30.31,30.17,8,3,8,0.01
2013-2-23,44.8,41.2,37.8,44.3,40.9,37.3,99,99,99,30.19,29.68,13,4,13,0.77
2013-2-24,52.9,40.6,32.4,47.4,36.6,26.5,99,86,59,29.91,29.64,21,7,21,0.01
2013-2-25,48.6,38.8,29.3,35.5,31.2,26.2,95,75,57,30.15,29.90,11,3,11,0.00
2013-2-26,47.3,38.0,26.6,45.0,37.0,26.4,99,96,84,30.20,29.73,23,5,23,0.25
2013-2-27,57.0,46.5,40.5,56.6,45.7,39.1,99,97,77,29.76,29.39,19,6,19,0.38
2013-2-28,52.3,44.0,37.4,46.5,40.0,34.1,99,86,65,29.54,29.46,16,4,16,0.00